Location: Darlington Observatory
(36.4817°N, 105.8156°W)
Time: 21:11:20
(UTC-06:00)

NOSS 3-3 (A) - Visible Passes

Search period start: 30 September 2016 00:00
Search period end: 10 October 2016 00:00
Orbit: 927 x 1286 km, 63.4° (Epoch: 25 September)

Date Brightness Start Highest point End Pass type
(mag) Time Alt. Az. Time Alt. Az. Time Alt. Az.
30 Sep 5.7 20:22:15 10° NW 20:29:13 40° WSW 20:36:29 10° S visible
01 Oct 5.0 19:37:12 10° NW 19:44:40 63° WSW 19:52:31 10° SSE visible
02 Oct 6.9 20:45:25 10° WNW 20:50:14 18° WSW 20:55:11 10° SW visible
03 Oct 6.3 19:59:27 10° NW 20:05:52 30° WSW 20:12:31 10° SSW visible
04 Oct 5.6 19:14:10 10° NW 19:21:23 48° WSW 19:28:57 10° S visible
05 Oct 7.3 20:23:55 10° W 20:26:46 12° WSW 20:29:40 10° SW visible
06 Oct 7.0 19:36:54 10° WNW 19:42:28 22° WSW 19:48:13 10° SSW visible
07 Oct 6.3 18:51:16 10° NW 18:58:03 36° WSW 19:05:08 10° S visible
09 Oct 7.4 19:14:46 10° WNW 19:19:02 16° WSW 19:23:23 10° SW visible
